Flag for Russia Weather past 2 weeks in Barnaul, Russia

Now
52 °F

Passing clouds.


Feels Like: 50 °F
Forecast: 49 / 64 °F
Wind: 6 mph from South

Location: Barnaul Airport

Current Time: Sep 5, 2015 at 9:21:35 PM

Latest Report: Sep 5, 2015 at 9:00 PM


Visibility: N/A

Pressure: 30.21 "Hg

Humidity: 77%

Dew point: 45 °F

Location of BarnaulLocation

Historic Weather in Barnaul — Graph

°F

Barnaul temperature yesterday

Maximum temperature yesterday: 61 °F (at 2:30 PM)
Minimum temperature yesterday: 50 °F (at 5:00 AM)
Average temperature yesterday: 54 °F

Past Weeks' High & Low Weather Summary

 TemperatureHumidityPressure
High86 °F (Sep 2, 3:00 PM)94% (Aug 22, 7:00 AM)30.21 "Hg (Aug 22, 7:00 AM)
Low48 °F (Aug 27, 4:30 AM)11% (Sep 1, 2:00 PM)29.50 "Hg (Aug 22, 1:30 AM)
Average63 °F53%29.91 "Hg
* Reported Aug 21 8:00 PM — Sep 5 8:00 PM, Barnaul, Weather by CustomWeather, © 2015

Note: Actual official high and low records may vary slightly from our data, if they occured in-between our weather recording intervals... More about our weather records

Advertising

Barnaul weather history for previous 24 hours

 ConditionsComfort  
Time TempWeatherWind HumidityBarometerVisibility
8:00 PM
Sat, Sep 5
54 °FPassing clouds.6 mph77%30.21 "HgN/A
7:30 PM55 °FPassing clouds.6 mph72%30.18 "HgN/A
7:00 PM55 °FSprinkles. Partly sunny.8 mph72%30.21 "HgN/A
6:30 PM55 °FScattered clouds.10 mph67%30.18 "HgN/A
6:00 PM59 °FScattered clouds.8 mph55%30.18 "HgN/A
5:30 PM59 °FScattered clouds.6 mph55%30.18 "HgN/A
5:00 PM59 °FScattered clouds.10 mph55%30.15 "HgN/A
4:30 PM61 °FScattered clouds.13 mph52%30.15 "HgN/A
4:00 PM63 °FScattered clouds.6 mph49%30.15 "HgN/A
3:30 PM61 °FScattered clouds.6 mph52%30.15 "HgN/A
3:00 PM59 °FPartly sunny.6 mph63%30.15 "HgN/A
2:30 PM57 °FSprinkles. Partly sunny.10 mph67%30.18 "Hg5 mi
2:00 PM61 °FPartly sunny.8 mph45%30.15 "HgN/A
1:30 PM61 °FPartly sunny.8 mph45%30.15 "HgN/A
1:00 PM61 °FPartly sunny.6 mph48%30.15 "HgN/A
12:30 PM61 °FPartly sunny.8 mph45%30.15 "HgN/A
12:00 PM61 °FScattered clouds.3 mph45%30.15 "HgN/A
11:30 AM64 °FScattered clouds.3 mph37%30.15 "HgN/A
11:00 AM64 °FScattered clouds.6 mph34%30.15 "HgN/A
10:30 AM63 °FScattered clouds.3 mph45%30.15 "HgN/A
10:00 AM61 °FScattered clouds.3 mph48%30.15 "HgN/A
9:30 AM59 °FScattered clouds.6 mph55%30.15 "HgN/A
9:00 AM59 °FScattered clouds.3 mph59%30.15 "HgN/A
8:30 AM54 °FScattered clouds.3 mph72%30.15 "HgN/A
8:00 AM54 °FScattered clouds.No wind67%30.15 "HgN/A
7:30 AM50 °FScattered clouds.1 mph82%30.15 "HgN/A
7:00 AM50 °FScattered clouds.3 mph82%30.12 "HgN/A
6:30 AM50 °FScattered clouds.No wind76%30.12 "HgN/A
6:00 AM48 °FScattered clouds.3 mph82%30.12 "HgN/A
5:30 AM48 °FPassing clouds.1 mph82%30.12 "HgN/A
5:00 AM50 °FPassing clouds.3 mph76%30.09 "HgN/A
4:30 AM50 °FPassing clouds.3 mph76%30.09 "HgN/A
3:30 AM52 °FPassing clouds.No wind77%30.09 "HgN/A
3:00 AM50 °FPassing clouds.3 mph82%30.09 "HgN/A
2:30 AM52 °FPassing clouds.No wind77%30.09 "HgN/A
2:00 AM52 °FPassing clouds.No wind77%30.09 "HgN/A
1:30 AM52 °FPassing clouds.No wind77%30.09 "HgN/A
1:00 AM52 °FClear.No wind77%30.09 "HgN/A
12:30 AM52 °FClear.1 mph77%30.09 "Hg10 mi
12:00 AM52 °FClear.No wind72%30.09 "Hg10 mi
11:30 PM
Fri, Sep 4
54 °FClear.No wind72%30.09 "Hg10 mi
11:00 PM54 °FClear.No wind72%30.09 "Hg10 mi
10:30 PM54 °FClear.No wind72%30.09 "HgN/A
10:00 PM54 °FClear.No wind72%30.09 "HgN/A
9:30 PM54 °FClear.No wind67%30.09 "HgN/A
9:00 PM55 °FPassing clouds.No wind67%30.09 "Hg4 mi
Weather by CustomWeather, © 2015

See weather overviewHow to use our weather pages